Regional Weather Roundup
Issued by NWS

Home | Current Version | Previous Version | Text Only | Print | Product List | Glossary Off
Versions: 1 2 3 4 5 6 7 8 9 10 11 12 13 14 15 16 17 18 19 20 21 22 23 24 25 26 27 28 29 30 31 32 33 34 35 36 37 38 39 40 41 42 43 44 45 46 47 48 49 50

896
ASUS43 KLMK 241702
RWRKY
KENTUCKY REGIONAL WEATHER ROUNDUP
NATIONAL WEATHER SERVICE LOUISVILLE KY
100 PM EDT TUE APR 24 2018

NOTE "FAIR" INDICATES FEW OR NO CLOUDS BELOW 12,000 FEET
WITH NO SIGNIFICANT WEATHER AND/OR OBSTRUCTIONS TO VISIBILITY.

KYZ001>023-026-027-061>063-070>075-241800-
WESTERN AND SOUTH CENTRAL KENTUCKY

CITY           SKY/WX    TMP DP  RH WIND       PRES   REMARKS
PADUCAH        CLOUDY    63  56  78 NW9       29.96S
HENDERSON      LGT RAIN  56  54  93 NW8       29.96S
OWENSBORO      CLOUDY    58  54  86 NW10      29.94S
HOPKINSVILLE   NOT AVBL
BOWLING GREEN  CLOUDY    61  55  81 NW7       29.91F
GLASGOW        NOT AVBL
$$

KYZ024-025-028>034-038-045-046-053-241800-
NORTH CENTRAL KENTUCKY

CITY           SKY/WX    TMP DP  RH WIND       PRES   REMARKS
LOUISVILLE/SDF CLOUDY    57  53  86 NE3       29.91F
LOUISVILLE/LOU CLOUDY    56  55  97 CALM      29.92S FOG
FORT KNOX      CLOUDY    56  55  99 CALM      29.92S
$$

KYZ035>037-039>044-047>052-055>060-089>105-241800-
NORTHEAST KENTUCKY

CITY           SKY/WX    TMP DP  RH WIND       PRES   REMARKS
LEXINGTON      LGT RAIN  56  52  86 E5        29.91F
COVINGTON      CLOUDY    55  53  93 E9        29.92F
FRANKFORT      LGT RAIN  56  52  86 NE3       29.90F
$$

KYZ054-064>069-076>088-106>120-241800-
SOUTHEAST KENTUCKY

CITY           SKY/WX    TMP DP  RH WIND       PRES   REMARKS
JACKSON        CLOUDY    58  54  86 CALM      29.89F
LONDON         LGT RAIN  58  54  86 CALM      29.89F
SOMERSET       NOT AVBL
MIDDLESBORO    CLOUDY    60  53  79 CALM      29.88F
MONTICELLO     CLOUDY    59  55  87 VRB7      29.91F
$$





USA.gov is the U.S. government's official web portal to all federal, state and local government web resources and services.